Saint Simons Island, GA

9:41 PM EDT on September 29, 2016 (GMT -0400)
McKinnon

Weather History for KSSI - October, 2012

Change the Weather History Date:

Friday, October 5, 2012

  Actual Average Record
Temperature  
Mean Temperature 80 °F 73 °F  
Max Temperature 84 °F 81 °F 95 °F (1986)
Min Temperature 75 °F 66 °F 51 °F (1987)
Degree Days  
Heating Degree Days 0 0  
Month to date heating degree days 0 0  
Since 1 July heating degree days 0 0  
Cooling Degree Days 15 9  
Month to date cooling degree days 72 47  
Year to date cooling degree days 2732 2418  
Growing Degree Days 28 (Base 50)    
Moisture  
Dew Point 72 °F    
Average Humidity 82    
Maximum Humidity 94    
Minimum Humidity 69    
Precipitation  
Precipitation T in 0.18 in 4.68 in (2005)
Month to date precipitation 0.66 0.96  
Year to date precipitation 36.81 36.83  
Snow  
Snow 0.00 in - 0.00 in ()
Month to date snowfall 0.0  
Since 1 July snowfall 0.0  
Since 1 September snowfall 0.0  
Snow Depth 0.00 in    
Sea Level Pressure  
Sea Level Pressure 30.10 in    
Wind  
Wind Speed 6 mph (NE)    
Max Wind Speed 16 mph    
Max Gust Speed 20 mph    
Visibility 9 miles    
Events Rain    
T = Trace of Precipitation, MM = Missing Value Source: NWS Daily Summary

Daily Weather History Graph

Daily Weather History Graph

Search for Another Location

Airport or City:

Trip Planner

Search our weather history database for the weather conditions in past years. The results will help you decide how hot, cold, wet, or windy it might be!

Date:

Astronomy

Oct. 05, 2012 Rise Set
Actual Time 7:22 AM EDT 7:05 PM EDT
Civil Twilight 6:57 AM EDT 7:29 PM EDT
Nautical Twilight 6:29 AM EDT 7:57 PM EDT
Astronomical Twilight 6:01 AM EDT 8:25 PM EDT
Moon 10:45 PM EDT (10/5) 12:10 PM EDT (10/5)
Length of Visible Light 12h 31m
Length of Day
11h 43m
Waning Gibbous, 74% of the Moon is Illuminated
Oct 5
Waning Gibbous
Oct 8
Last Quarter
Oct 15
New
Oct 21
First Quarter
Oct 29
Full

Hourly Weather History & Observations

Time (EDT) Temp. Heat Index Dew Point Humidity Pressure Visibility Wind Dir Wind Speed Gust Speed Precip Events Conditions
12:48 AM 78.8 °F - 73.4 °F 83% 30.16 in 10.0 mi ENE 8.1 mph - N/A   Mostly Cloudy
12:53 AM 78.1 °F - 73.0 °F 84% 30.15 in 10.0 mi ENE 5.8 mph - N/A   Mostly Cloudy
1:25 AM 78.8 °F - 73.4 °F 83% 30.14 in 10.0 mi North 4.6 mph - N/A   Scattered Clouds
1:53 AM 75.9 °F - 73.0 °F 91% 30.14 in 8.0 mi Calm Calm - N/A   Partly Cloudy
2:53 AM 77.0 °F - 73.0 °F 88% 30.14 in 10.0 mi Calm Calm - N/A   Clear
3:53 AM 75.2 °F - 73.4 °F 94% 30.12 in 8.0 mi Calm Calm - N/A   Partly Cloudy
4:53 AM 75.9 °F - 72.0 °F 87% 30.12 in 7.0 mi Calm Calm - N/A   Clear
5:53 AM 75.9 °F - 73.0 °F 91% 30.12 in 7.0 mi North 3.5 mph - N/A   Clear
6:53 AM 75.0 °F - 72.0 °F 90% 30.12 in 7.0 mi North 4.6 mph - N/A   Clear
7:53 AM 75.0 °F - 72.0 °F 90% 30.13 in 5.0 mi North 4.6 mph - N/A   Clear
8:53 AM 77.0 °F - 73.0 °F 88% 30.13 in 7.0 mi NNE 6.9 mph - N/A   Clear
9:04 AM 77.0 °F - 73.4 °F 89% 30.13 in 8.0 mi North 5.8 mph - N/A   Partly Cloudy
9:20 AM 77.0 °F - 73.4 °F 89% 30.13 in 8.0 mi NNE 6.9 mph - N/A   Mostly Cloudy
9:45 AM 78.8 °F - 73.4 °F 83% 30.13 in 7.0 mi NNE 9.2 mph - N/A   Partly Cloudy
9:53 AM 79.0 °F - 73.0 °F 82% 30.14 in 8.0 mi NNE 9.2 mph - N/A   Scattered Clouds
10:13 AM 80.6 °F 85.4 °F 73.4 °F 79% 30.13 in 9.0 mi NNE 6.9 mph - N/A   Mostly Cloudy
10:53 AM 81.0 °F 85.8 °F 73.0 °F 77% 30.13 in 10.0 mi NNE 9.2 mph - N/A   Mostly Cloudy
11:05 AM 80.6 °F 84.6 °F 71.6 °F 74% 30.13 in 10.0 mi NNE 9.2 mph - N/A   Overcast
11:33 AM 82.4 °F 87.2 °F 71.6 °F 70% 30.13 in 10.0 mi NE 9.2 mph - N/A   Scattered Clouds
11:53 AM 82.0 °F 86.7 °F 72.0 °F 71% 30.13 in 10.0 mi NE 10.4 mph - N/A   Partly Cloudy
12:53 PM 80.1 °F 83.8 °F 72.0 °F 76% 30.12 in 8.0 mi NE 8.1 mph - 0.00 in Rain Light Rain
1:53 PM 81.0 °F 85.2 °F 72.0 °F 74% 30.09 in 10.0 mi ENE 13.8 mph - 0.00 in   Mostly Cloudy
2:02 PM 82.4 °F 87.2 °F 71.6 °F 70% 30.09 in 10.0 mi ENE 13.8 mph - N/A   Scattered Clouds
2:53 PM 82.0 °F 86.7 °F 72.0 °F 71% 30.07 in 10.0 mi ENE 15.0 mph - N/A   Scattered Clouds
3:53 PM 80.1 °F 83.6 °F 71.1 °F 74% 30.04 in 10.0 mi ENE 10.4 mph - N/A   Clear
4:53 PM 79.0 °F - 72.0 °F 79% 30.04 in 10.0 mi ENE 8.1 mph - N/A   Clear
5:53 PM 79.0 °F - 72.0 °F 79% 30.02 in 10.0 mi ENE 8.1 mph - N/A   Clear
6:53 PM 79.0 °F - 72.0 °F 79% 30.03 in 10.0 mi East 8.1 mph - N/A   Partly Cloudy
7:53 PM 78.1 °F - 72.0 °F 81% 30.04 in 10.0 mi ESE 4.6 mph - N/A   Scattered Clouds
8:53 PM 79.0 °F - 72.0 °F 79% 30.04 in 10.0 mi East 3.5 mph - N/A   Mostly Cloudy
9:12 PM 78.8 °F - 71.6 °F 78% 30.04 in 10.0 mi East 4.6 mph - N/A   Scattered Clouds
9:53 PM 78.1 °F - 73.0 °F 84% 30.03 in 10.0 mi ESE 4.6 mph - N/A   Partly Cloudy
10:14 PM 78.8 °F - 73.4 °F 83% 30.04 in 10.0 mi Calm Calm - N/A   Mostly Cloudy
10:53 PM 78.1 °F - 72.0 °F 81% 30.04 in 10.0 mi Calm Calm - N/A   Mostly Cloudy
11:53 PM 78.1 °F - 72.0 °F 81% 30.04 in 10.0 mi Calm Calm - N/A   Partly Cloudy